User: anonymous   Login
Location: Unspecified
(0.0000°N, 0.0000°E)
Time: 01:04:21
(UTC+00:00)
Language:

STARLINK-34655 - Orbit

View from above orbital plane
View from above orbital plane
View from above satellite
View from above satellite

Ground track
Ground track

The orbit is defined by the following mean orbital elements,

1 65027U          26145.49156963 +.00000000 +00000-0 +21483-2 0 00004
2 65027  53.1598 297.8104 0001200 170.2655 189.8369 15.30146454    00
Epoch (UTC): 25 May 2026 11:47:51
Eccentricity: 0.0001200
inclination: 53.1598°
perigee height: 475 km
apogee height: 476 km
right ascension of ascending node: 297.8104°
argument of perigee: 170.2655°
revolutions per day: 15.30146454
mean anomaly at epoch: 189.8369°

The dashed part of the orbit path shows where the satellite is in the earth's shadow,  

DLR